sat.trackr.live / text

‹ back to catalog

STARLINK-35062

NORAD 65643 · 2025-210X

PAYLOAD ACTIVE UNKNOWN

§ Identity

Operator
Country
US
Launch date
2025-09-18
Launch site
AFETR
Launch vehicle
Mass (kg)
RCS (m²)

Purposes: comms

External: N2YO · Heavens-Above · Gunter

§ Orbital elements

Epoch: 2026-05-24T18:05:03.092064Z

Period
93.85 min
Inclination
53.1592°
Eccentricity
0.0001069
Mean motion
15.34398895 rev/d
Perigee alt
462.0 km
Apogee alt
463.4 km
Semi-major
6,840.8 km
B*
3.2740e-4
RAAN
312.5766°
Arg perigee
89.2171°
Mean anomaly
270.8954°
Rev number
3,939

§ Raw data

STARLINK-350621 65643U 25210X   26144.75350801  .00010701  00000+0  32740-3 0  99972 65643  53.1592 312.5766 0001069  89.2171 270.8954 15.34398895 39399

JSON: /api/v1/satellites/65643 · /tle

For live sub-satellite position, see the globe view (requires WebGL).

§ Visibility from observer

Set your observer location to see the next 7 days of passes ≥ 10°. The values pass through the URL so the page stays shareable.

No JS? Fill the form by hand. The geolocation button needs JavaScript.